When you browse on this site, cookies collect data to enhance your experience and personalize the content and advertising you see.
Visit our Privacy Policy to learn more. By continuing to use the site, you agree to this use of cookies and data.
  • In Hungary
  • List of Countries
  • For 7 days
  • Water Temperature
  • Satellite Maps
  • Weather Map
  • News
  • Weather Widgets
  • user-avatar
    Login

    Hourly Weather Enbekshi

    Today, 9 December, Sunday

    Time Temperature Precipitation Wind Pressure Humidity
    00:00 -14°C° 0 mm 2 mps 742 mmHg 65%
    01:00 -14°C° 0 mm 2 mps 742 mmHg 65%
    02:00 -14°C° 0 mm 2 mps 742 mmHg 64%
    03:00 -12°C° 0 mm 1 mps 742 mmHg 64%
    04:00 -13°C° 0 mm 1 mps 742 mmHg 63%
    05:00 -15°C° 0 mm 2 mps 742 mmHg 62%
    06:00 -14°C° 0 mm 2 mps 742 mmHg 62%
    07:00 -14°C° 0 mm 2 mps 742 mmHg 62%
    08:00 -14°C° 0 mm 2 mps 742 mmHg 63%
    09:00 -14°C° 0 mm 2 mps 742 mmHg 65%
    10:00 -11°C° 0 mm 1 mps 742 mmHg 67%
    11:00 -10°C° 0 mm 1 mps 742 mmHg 68%
    12:00 -10°C° 0 mm 1 mps 742 mmHg 68%
    13:00 -9°C° 0 mm 1 mps 742 mmHg 69%
    14:00 -10°C° 0 mm 1 mps 742 mmHg 67%
    15:00 -11°C° 0 mm 1 mps 742 mmHg 65%
    16:00 -12°C° 0 mm 1 mps 742 mmHg 65%
    17:00 -12°C° 0 mm 1 mps 742 mmHg 63%
    18:00 -12°C° 0 mm 1 mps 742 mmHg 62%
    19:00 -12°C° 0 mm 1 mps 742 mmHg 61%
    20:00 -12°C° 0 mm 1 mps 742 mmHg 61%
    21:00 -12°C° 0 mm 1 mps 742 mmHg 61%
    22:00 -12°C° 0 mm 0 mps 742 mmHg 61%
    23:00 -12°C° 0 mm 0 mps 742 mmHg 61%

    Tomorrow, 10 December, Monday

    Time Temperature Precipitation Wind Pressure Humidity
    00:00 -13°C° 0 mm 0 mps 742 mmHg 60%
    01:00 -13°C° 0 mm 0 mps 742 mmHg 60%
    02:00 -12°C° 0 mm 0 mps 742 mmHg 59%
    03:00 -12°C° 0 mm 0 mps 742 mmHg 59%
    04:00 -12°C° 0 mm 0 mps 742 mmHg 59%
    05:00 -12°C° 0 mm 0 mps 742 mmHg 60%
    06:00 -11°C° 0 mm 0 mps 742 mmHg 62%
    07:00 -11°C° 0 mm 1 mps 742 mmHg 63%
    08:00 -10°C° 0 mm 1 mps 742 mmHg 64%
    09:00 -10°C° 0 mm 1 mps 742 mmHg 65%
    10:00 -9°C° 0 mm 1 mps 742 mmHg 66%
    11:00 -9°C° 0 mm 1 mps 742 mmHg 68%
    12:00 -8°C° 0 mm 1 mps 742 mmHg 70%
    13:00 -8°C° 0 mm 1 mps 742 mmHg 71%
    14:00 -9°C° 0 mm 1 mps 743 mmHg 72%
    15:00 -9°C° 0 mm 1 mps 743 mmHg 72%
    16:00 -10°C° 0 mm 1 mps 743 mmHg 72%
    17:00 -10°C° 0 mm 1 mps 743 mmHg 75%
    18:00 -10°C° 0 mm 1 mps 743 mmHg 78%
    19:00 -10°C° 0 mm 1 mps 744 mmHg 80%
    20:00 -10°C° 0 mm 1 mps 744 mmHg 82%
    21:00 -10°C° 0 mm 1 mps 744 mmHg 85%
    22:00 -10°C° 0 mm 1 mps 744 mmHg 87%
    23:00 -10°C° 0 mm 1 mps 744 mmHg 88%

    Day after tomorrow, 11 December, Tuesday

    Time Temperature Precipitation Wind Pressure Humidity
    00:00 -10°C° 0 mm 1 mps 744 mmHg 89%
    01:00 -10°C° 0 mm 0 mps 744 mmHg 90%
    02:00 -10°C° 0 mm 1 mps 745 mmHg 91%
    03:00 -9°C° 0 mm 1 mps 745 mmHg 91%
    04:00 -9°C° 0 mm 1 mps 745 mmHg 92%
    05:00 -10°C° 0 mm 1 mps 745 mmHg 92%
    06:00 -10°C° 0 mm 1 mps 745 mmHg 92%
    07:00 -10°C° 0 mm 1 mps 745 mmHg 92%
    08:00 -10°C° 0 mm 1 mps 746 mmHg 91%
    09:00 -10°C° 0 mm 1 mps 746 mmHg 91%
    10:00 -9°C° 0 mm 1 mps 746 mmHg 91%
    11:00 -9°C° 0 mm 1 mps 746 mmHg 90%
    12:00 -8°C° 0 mm 1 mps 746 mmHg 90%
    13:00 -8°C° 0 mm 1 mps 746 mmHg 89%
    14:00 -9°C° 0 mm 1 mps 746 mmHg 89%
    15:00 -9°C° 0 mm 1 mps 746 mmHg 88%
    16:00 -10°C° 0 mm 1 mps 746 mmHg 88%
    17:00 -10°C° 0 mm 1 mps 746 mmHg 88%
    18:00 -11°C° 0 mm 1 mps 746 mmHg 88%
    19:00 -11°C° 0 mm 1 mps 747 mmHg 87%
    20:00 -11°C° 0 mm 1 mps 746 mmHg 88%
    21:00 -11°C° 0 mm 1 mps 746 mmHg 88%
    22:00 -11°C° 0 mm 1 mps 746 mmHg 88%
    23:00 -11°C° 0 mm 1 mps 746 mmHg 89%

    12 December, Wednesday

    Time Temperature Precipitation Wind Pressure Humidity
    00:00 -11°C° 0 mm 1 mps 746 mmHg 89%
    01:00 -11°C° 0 mm 1 mps 746 mmHg 90%
    02:00 -11°C° 0 mm 1 mps 746 mmHg 91%
    03:00 -12°C° 0 mm 1 mps 746 mmHg 91%
    04:00 -12°C° 0 mm 0 mps 746 mmHg 92%
    05:00 -11°C° 0 mm 1 mps 746 mmHg 92%
    06:00 -11°C° 0 mm 1 mps 746 mmHg 92%
    07:00 -11°C° 0 mm 1 mps 746 mmHg 92%
    08:00 -11°C° 0 mm 1 mps 746 mmHg 92%
    09:00 -10°C° 0 mm 1 mps 746 mmHg 92%
    10:00 -10°C° 0 mm 1 mps 746 mmHg 92%
    11:00 -9°C° 0 mm 1 mps 746 mmHg 92%
    12:00 -8°C° 0 mm 1 mps 746 mmHg 92%
    13:00 -8°C° 0 mm 1 mps 746 mmHg 92%
    14:00 -8°C° 0 mm 1 mps 746 mmHg 91%
    15:00 -9°C° 0 mm 1 mps 746 mmHg 91%
    16:00 -10°C° 0 mm 2 mps 746 mmHg 90%
    17:00 -10°C° 0 mm 2 mps 745 mmHg 90%
    18:00 -12°C° 0 mm 2 mps 745 mmHg 89%
    19:00 -12°C° 0 mm 2 mps 745 mmHg 88%
    20:00 -12°C° 0 mm 2 mps 745 mmHg 88%
    21:00 -12°C° 0 mm 2 mps 745 mmHg 87%
    22:00 -12°C° 0 mm 2 mps 745 mmHg 87%
    23:00 -12°C° 0 mm 2 mps 745 mmHg 86%

    13 December, Thursday

    Time Temperature Precipitation Wind Pressure Humidity
    00:00 -12°C° 0 mm 2 mps 745 mmHg 85%
    01:00 -13°C° 0 mm 2 mps 744 mmHg 84%
    02:00 -13°C° 0 mm 2 mps 744 mmHg 83%
    03:00 -13°C° 0 mm 2 mps 744 mmHg 82%
    04:00 -13°C° 0 mm 2 mps 744 mmHg 81%
    05:00 -13°C° 0 mm 2 mps 744 mmHg 79%
    06:00 -13°C° 0 mm 2 mps 744 mmHg 78%
    07:00 -14°C° 0 mm 2 mps 744 mmHg 77%
    08:00 -13°C° 0 mm 2 mps 744 mmHg 77%
    09:00 -13°C° 0 mm 2 mps 744 mmHg 76%
    10:00 -12°C° 0 mm 2 mps 744 mmHg 76%
    11:00 -12°C° 0 mm 2 mps 743 mmHg 76%
    12:00 -10°C° 0 mm 2 mps 743 mmHg 76%
    13:00 -9°C° 0 mm 2 mps 743 mmHg 77%
    14:00 -10°C° 0 mm 2 mps 743 mmHg 76%
    15:00 -12°C° 0 mm 2 mps 743 mmHg 75%
    16:00 -12°C° 0 mm 2 mps 743 mmHg 74%
    17:00 -12°C° 0 mm 2 mps 743 mmHg 74%
    18:00 -13°C° 0 mm 3 mps 743 mmHg 75%
    19:00 -13°C° 0 mm 3 mps 743 mmHg 76%
    20:00 -13°C° 0 mm 3 mps 743 mmHg 77%
    21:00 -13°C° 0 mm 3 mps 742 mmHg 79%
    22:00 -13°C° 0 mm 3 mps 742 mmHg 80%
    23:00 -13°C° 0 mm 3 mps 742 mmHg 81%

    14 December, Friday

    Time Temperature Precipitation Wind Pressure Humidity
    00:00 -12°C° 0 mm 3 mps 742 mmHg 82%
    01:00 -12°C° 0 mm 3 mps 742 mmHg 84%
    02:00 -11°C° 0 mm 4 mps 742 mmHg 85%
    03:00 -11°C° 0 mm 4 mps 742 mmHg 85%
    04:00 -12°C° 0 mm 5 mps 742 mmHg 86%
    05:00 -11°C° 0.1 mm 5 mps 741 mmHg 87%
    06:00 -11°C° 0.1 mm 5 mps 741 mmHg 87%
    07:00 -11°C° 0.1 mm 6 mps 741 mmHg 88%
    08:00 -11°C° 0.5 mm 6 mps 741 mmHg 89%
    09:00 -11°C° 0.5 mm 6 mps 741 mmHg 91%
    10:00 -12°C° 0.5 mm 7 mps 741 mmHg 92%
    11:00 -11°C° 1.3 mm 7 mps 740 mmHg 93%
    12:00 -11°C° 1.3 mm 7 mps 740 mmHg 94%
    13:00 -11°C° 1.3 mm 7 mps 740 mmHg 95%
    14:00 -11°C° 1.1 mm 7 mps 740 mmHg 95%
    15:00 -10°C° 1.1 mm 6 mps 740 mmHg 95%
    16:00 -10°C° 1.1 mm 6 mps 739 mmHg 95%
    17:00 -10°C° 0.4 mm 6 mps 739 mmHg 95%
    18:00 -10°C° 0.4 mm 6 mps 739 mmHg 94%
    19:00 -10°C° 0.4 mm 5 mps 739 mmHg 94%
    20:00 -10°C° 0.1 mm 5 mps 739 mmHg 94%
    21:00 -10°C° 0.1 mm 5 mps 738 mmHg 95%
    22:00 -10°C° 0.1 mm 5 mps 738 mmHg 95%
    23:00 -10°C° 0.1 mm 5 mps 738 mmHg 95%
    Show more